"Pseudo-MPEC" for jkN2003

Created 2021 Nov 27 15:07:31 UT using Find_Orb

Click here for an explanation of pseudo-MPECs

 
 Astrometry: 
     jkN2003 LC2021 11 06.58846811 32 04.32 +13 30 39.8    ~B7Eq 22.8 rVNEOCP568
     jkN2003 LC2021 11 06.59984511 32 05.35 +13 30 29.0    ~B7Eq 22.5 rVNEOCP568
     jkN2003 LC2021 11 06.62235311 32 07.41 +13 30 07.3    ~B7Eq 22.7 rVNEOCP568
     jkN2003 LC2021 11 06.63357411 32 08.43 +13 29 56.5    ~B7Eq 22.8 rVNEOCP568
     jkN2003 LC2021 11 06.64481611 32 09.46 +13 29 45.7    ~B7Eq 22.9 rVNEOCP568

Station data:
(568) Mauna Kea  (N19.826116 W155.472200)  US/Hawaii.

Orbital elements:  jkN2003
   Perihelion 2021 Jun 24.268186 +/- 91.3341 TT =  6:26:11 (JD 2459389.768186)
Epoch 2021 Nov  7.0 TT = JDT 2459525.5   Earth MOID: 0.9483   AutoNEOCP
M  32.16659382 +/- 90.410042        (J2000 ecliptic)
n   0.23698639 +/- 0.626455         Peri.   92.61110 +/- 80.967167
a   2.58615033 +/- 4.55744          Node   345.52552 +/- 41.364336
e   0.3395143 +/- 0.204819          Incl.   28.01754 +/- 55.622546
P   4.16                   H 18.5   G  0.15   U 12.4  SR
q 1.70811514 +/- 0.563123    Q 3.46418553 +/- 15.2923
From 5 observations 2021 Nov. 6 (81.1 min); mean residual 0".05
Residuals in arcseconds: 
211106 568  .07+  .06-    211106 568  .00   .00     211106 568  .05+  .01-    
211106 568  .08-  .07+    211106 568  .04-  .01-    

Ephemerides (geocentric):
Date (UTC) HH   RA              Dec         delta   r     elong  mag " sig PA
---- -- -- --  -------------   -----------  ------ ------ -----  --- ---- ---
2021 11 27 15  12 01 01.006   +08 02 32.98  2.1969 2.0514  68.5 23.0  56d  11
2021 11 27 16  12 01 04.037   +08 01 55.33  2.1966 2.0516  68.5 23.0  56d  11
2021 11 27 17  12 01 07.066   +08 01 17.68  2.1962 2.0517  68.5 23.0  56d  11
2021 11 27 18  12 01 10.094   +08 00 40.03  2.1959 2.0519  68.5 23.0  56d  11
2021 11 27 19  12 01 13.120   +08 00 02.39  2.1956 2.0520  68.6 23.0  56d  11
2021 11 27 20  12 01 16.144   +07 59 24.76  2.1952 2.0522  68.6 23.0  56d  11
2021 11 27 21  12 01 19.166   +07 58 47.14  2.1949 2.0523  68.6 23.0  56d  11
2021 11 27 22  12 01 22.187   +07 58 09.52  2.1946 2.0525  68.6 23.0  56d  11
2021 11 27 23  12 01 25.206   +07 57 31.90  2.1943 2.0526  68.7 23.0  56d  11
2021 11 28 00  12 01 28.223   +07 56 54.29  2.1939 2.0528  68.7 23.0  56d  11
2021 11 28 01  12 01 31.238   +07 56 16.69  2.1936 2.0529  68.7 23.0  56d  11
2021 11 28 02  12 01 34.252   +07 55 39.09  2.1933 2.0531  68.7 23.0  56d  11
2021 11 28 03  12 01 37.264   +07 55 01.50  2.1929 2.0532  68.8 23.0  56d  11
2021 11 28 04  12 01 40.274   +07 54 23.91  2.1926 2.0534  68.8 23.0  56d  11
2021 11 28 05  12 01 43.283   +07 53 46.33  2.1923 2.0535  68.8 23.0  56d  11
2021 11 28 06  12 01 46.290   +07 53 08.76  2.1920 2.0537  68.9 23.0  56d  11
2021 11 28 07  12 01 49.295   +07 52 31.19  2.1916 2.0538  68.9 23.0  56d  11
2021 11 28 08  12 01 52.298   +07 51 53.63  2.1913 2.0540  68.9 23.0  56d  11
2021 11 28 09  12 01 55.300   +07 51 16.07  2.1910 2.0541  68.9 23.0  56d  11
2021 11 28 10  12 01 58.300   +07 50 38.52  2.1906 2.0543  69.0 23.0  56d  11
2021 11 28 11  12 02 01.298   +07 50 00.97  2.1903 2.0544  69.0 23.0  56d  11
2021 11 28 12  12 02 04.295   +07 49 23.43  2.1900 2.0546  69.0 23.0  56d  11
2021 11 28 13  12 02 07.289   +07 48 45.90  2.1897 2.0547  69.0 23.0  56d  11
2021 11 28 14  12 02 10.282   +07 48 08.37  2.1893 2.0549  69.1 23.0  57d  11
2021 11 28 15  12 02 13.274   +07 47 30.85  2.1890 2.0550  69.1 23.0  57d  11
2021 11 28 16  12 02 16.263   +07 46 53.33  2.1887 2.0552  69.1 23.0  57d  11
2021 11 28 17  12 02 19.251   +07 46 15.82  2.1883 2.0553  69.1 23.0  57d  11
2021 11 28 18  12 02 22.237   +07 45 38.31  2.1880 2.0555  69.2 23.0  57d  11
2021 11 28 19  12 02 25.221   +07 45 00.81  2.1877 2.0556  69.2 23.0  57d  11
2021 11 28 20  12 02 28.204   +07 44 23.32  2.1873 2.0558  69.2 23.0  57d  11
2021 11 28 21  12 02 31.185   +07 43 45.83  2.1870 2.0559  69.2 23.0  57d  11
2021 11 28 22  12 02 34.164   +07 43 08.35  2.1867 2.0561  69.3 23.0  57d  11
2021 11 28 23  12 02 37.141   +07 42 30.87  2.1864 2.0562  69.3 23.0  57d  11
2021 11 29 00  12 02 40.117   +07 41 53.40  2.1860 2.0564  69.3 23.0  57d  11
2021 11 29 01  12 02 43.091   +07 41 15.94  2.1857 2.0566  69.3 23.0  57d  11
2021 11 29 02  12 02 46.063   +07 40 38.48  2.1854 2.0567  69.4 23.0  57d  11
2021 11 29 03  12 02 49.034   +07 40 01.03  2.1850 2.0569  69.4 23.0  57d  11
2021 11 29 04  12 02 52.002   +07 39 23.58  2.1847 2.0570  69.4 23.0  57d  11
2021 11 29 05  12 02 54.969   +07 38 46.14  2.1844 2.0572  69.5 23.0  57d  11
2021 11 29 06  12 02 57.934   +07 38 08.71  2.1840 2.0573  69.5 23.0  57d  11
2021 11 29 07  12 03 00.898   +07 37 31.28  2.1837 2.0575  69.5 23.0  57d  11
2021 11 29 08  12 03 03.859   +07 36 53.85  2.1834 2.0576  69.5 23.0  57d  11
2021 11 29 09  12 03 06.819   +07 36 16.43  2.1830 2.0578  69.6 23.0  57d  11
2021 11 29 10  12 03 09.778   +07 35 39.02  2.1827 2.0579  69.6 23.0  57d  11
2021 11 29 11  12 03 12.734   +07 35 01.62  2.1824 2.0581  69.6 23.0  57d  11
2021 11 29 12  12 03 15.689   +07 34 24.22  2.1820 2.0582  69.6 23.0  57d  11
2021 11 29 13  12 03 18.642   +07 33 46.82  2.1817 2.0584  69.7 23.0  57d  11
2021 11 29 14  12 03 21.593   +07 33 09.43  2.1814 2.0585  69.7 23.0  57d  11